Location: Makanda
(37.6176°N, 89.2090°W)
Time: 09:48:12
(UTC+00:00)

Cosmos 2344 - Pass Details

Date: 23 September 2019
Orbit: 1260 x 2982 km, 63.3° (Epoch: 15 October)

Event Time Altitude Azimuth Distance (km) Brightness Sun altitude
Exits shadow 08:54:52 36° 324° (NW) 1,937 4.4 -33.1°
Drops below altitude 10° 09:01:45 10° 22° (NNE) 3,518 6.4 -32.0°
Sets 09:05:15 0° 31° (NNE) 4,672 7.3 -31.3°
